Time,TemperatureF,DewpointF,PressureIn,WindDirection,WindDirectionDegrees,WindSpeedMPH,WindSpeedGustMPH,Humidity,HourlyPrecipIn,Conditions,Clouds,dailyrainin,SoftwareType,DateUTC
2013-06-23 00:02:00,40.0,39.0,-100.00,ESE,121,3.0,4.0,94,0.00,,,0.00,,2013-06-23 06:02:00,
2013-06-23 00:12:00,40.0,39.0,-100.00,ESE,121,3.0,4.0,94,0.00,,,0.00,,2013-06-23 06:12:00,
2013-06-23 00:52:00,39.0,37.0,-100.00,South,191,0.0,2.0,93,0.00,,,0.00,,2013-06-23 06:52:00,
2013-06-23 01:02:00,39.0,37.0,-100.00,South,191,0.0,2.0,93,0.00,,,0.00,,2013-06-23 07:02:00,
2013-06-23 01:12:00,39.0,37.0,-100.00,South,191,0.0,2.0,93,0.00,,,0.00,,2013-06-23 07:12:00,
2013-06-23 01:53:00,34.0,33.0,-100.00,SE,144,4.0,5.0,96,0.00,,,0.00,,2013-06-23 07:53:00,
2013-06-23 02:02:00,34.0,33.0,-100.00,SE,144,4.0,5.0,96,0.00,,,0.00,,2013-06-23 08:02:00,
2013-06-23 02:11:00,34.0,33.0,-100.00,SE,144,4.0,5.0,96,0.00,,,0.00,,2013-06-23 08:11:00,
2013-06-23 02:53:00,33.0,32.0,-100.00,ESE,116,2.0,3.0,96,0.00,,,0.00,,2013-06-23 08:53:00,
2013-06-23 03:02:00,33.0,32.0,-100.00,ESE,116,2.0,3.0,96,0.00,,,0.00,,2013-06-23 09:02:00,
2013-06-23 03:12:00,33.0,32.0,-100.00,ESE,116,2.0,3.0,96,0.00,,,0.00,,2013-06-23 09:12:00,
2013-06-23 03:54:00,32.0,31.0,-100.00,SW,223,1.0,3.0,96,0.00,,,0.00,,2013-06-23 09:54:00,
2013-06-23 04:02:00,32.0,31.0,-100.00,SW,223,1.0,3.0,96,0.00,,,0.00,,2013-06-23 10:02:00,
2013-06-23 04:11:00,32.0,31.0,-100.00,SW,223,1.0,3.0,96,0.00,,,0.00,,2013-06-23 10:11:00,
2013-06-23 04:53:00,31.0,30.0,-100.00,WSW,250,1.0,2.0,97,0.00,,,0.00,,2013-06-23 10:53:00,
2013-06-23 05:01:00,31.0,30.0,-100.00,WSW,250,1.0,2.0,97,0.00,,,0.00,,2013-06-23 11:01:00,
2013-06-23 05:11:00,31.0,30.0,-100.00,WSW,250,1.0,2.0,97,0.00,,,0.00,,2013-06-23 11:11:00,
2013-06-23 05:53:00,32.0,31.0,-100.00,South,191,1.0,4.0,96,0.00,,,0.00,,2013-06-23 11:53:00,
2013-06-23 06:01:00,32.0,31.0,-100.00,South,191,1.0,4.0,96,0.00,,,0.00,,2013-06-23 12:01:00,
2013-06-23 06:11:00,32.0,31.0,-100.00,South,191,1.0,4.0,96,0.00,,,0.00,,2013-06-23 12:11:00,
2013-06-23 06:53:00,31.0,30.0,-100.00,SSE,166,1.0,3.0,96,0.00,,,-99.99,,2013-06-23 12:53:00,
2013-06-23 07:01:00,31.0,30.0,-100.00,SSE,166,1.0,3.0,96,0.00,,,-99.99,,2013-06-23 13:01:00,
2013-06-23 07:11:00,31.0,30.0,-100.00,SSE,166,1.0,3.0,96,0.00,,,-99.99,,2013-06-23 13:11:00,
2013-06-23 07:54:00,33.0,32.0,-100.00,NNE,12,0.0,1.0,97,0.00,,,0.00,,2013-06-23 13:54:00,
2013-06-23 08:04:00,33.0,32.0,-100.00,NNE,12,0.0,1.0,97,0.00,,,0.00,,2013-06-23 14:04:00,
2013-06-23 08:11:00,33.0,32.0,-100.00,NNE,12,0.0,1.0,97,0.00,,,0.00,,2013-06-23 14:11:00,
2013-06-23 09:05:00,45.0,39.0,-100.00,NW,326,0.0,0.0,80,0.00,,,0.00,,2013-06-23 15:05:00,
2013-06-23 09:11:00,45.0,39.0,-100.00,NW,326,0.0,0.0,80,0.00,,,0.00,,2013-06-23 15:11:00,
2013-06-23 10:11:00,54.0,35.0,-100.00,SW,232,3.0,5.0,49,0.01,,,-99.99,,2013-06-23 16:11:00,
2013-06-23 10:53:00,56.0,28.0,-100.00,West,259,11.0,16.0,34,0.00,,,0.01,,2013-06-23 16:53:00,
2013-06-23 11:03:00,56.0,28.0,-100.00,West,259,11.0,16.0,34,0.00,,,0.01,,2013-06-23 17:03:00,
2013-06-23 11:11:00,56.0,28.0,-100.00,West,259,11.0,16.0,34,0.00,,,0.01,,2013-06-23 17:11:00,
2013-06-23 11:53:00,58.0,29.0,-100.00,WSW,243,4.0,7.0,33,0.00,,,0.01,,2013-06-23 17:53:00,
2013-06-23 12:01:00,58.0,29.0,-100.00,WSW,243,4.0,7.0,33,0.00,,,0.01,,2013-06-23 18:01:00,
2013-06-23 12:11:00,58.0,29.0,-100.00,WSW,243,4.0,7.0,33,0.00,,,0.01,,2013-06-23 18:11:00,
2013-06-23 14:53:00,62.0,26.0,-100.00,WSW,241,12.0,17.0,25,0.00,,,0.01,,2013-06-23 20:53:00,
2013-06-23 15:01:00,62.0,26.0,-100.00,WSW,241,12.0,17.0,25,0.00,,,0.01,,2013-06-23 21:01:00,
2013-06-23 15:11:00,62.0,26.0,-100.00,WSW,241,12.0,17.0,25,0.00,,,0.01,,2013-06-23 21:11:00,
2013-06-23 15:52:00,64.0,23.0,-100.00,WSW,257,12.0,17.0,21,0.00,,,0.01,,2013-06-23 21:52:00,
2013-06-23 16:01:00,64.0,23.0,-100.00,WSW,257,12.0,17.0,21,0.00,,,0.01,,2013-06-23 22:01:00,
2013-06-23 16:11:00,64.0,23.0,-100.00,WSW,257,12.0,17.0,21,0.00,,,0.01,,2013-06-23 22:11:00,
2013-06-23 16:53:00,65.0,23.0,-100.00,WSW,247,10.0,15.0,20,0.00,,,0.01,,2013-06-23 22:53:00,
2013-06-23 17:01:00,65.0,23.0,-100.00,WSW,247,10.0,15.0,20,0.00,,,0.01,,2013-06-23 23:01:00,
2013-06-23 17:11:00,65.0,23.0,-100.00,WSW,247,10.0,15.0,20,0.00,,,0.01,,2013-06-23 23:11:00,
2013-06-23 17:52:00,65.0,23.0,-100.00,SW,220,13.0,22.0,20,0.00,,,0.01,,2013-06-23 23:52:00,
2013-06-23 18:01:00,65.0,23.0,-100.00,SW,220,13.0,22.0,20,0.00,,,0.01,,2013-06-24 00:01:00,
2013-06-23 18:11:00,65.0,23.0,-100.00,SW,220,13.0,22.0,20,0.00,,,0.01,,2013-06-24 00:11:00,
2013-06-23 18:52:00,64.0,24.0,-100.00,SW,218,9.0,12.0,21,0.00,,,0.01,,2013-06-24 00:52:00,
2013-06-23 19:01:00,64.0,24.0,-100.00,SW,218,9.0,12.0,21,0.00,,,0.01,,2013-06-24 01:01:00,
2013-06-23 19:11:00,64.0,24.0,-100.00,SW,218,9.0,12.0,21,0.00,,,0.01,,2013-06-24 01:11:00,
2013-06-23 19:53:00,65.0,26.0,-100.00,WSW,246,6.0,10.0,23,0.00,,,0.01,,2013-06-24 01:53:00,
2013-06-23 20:01:00,65.0,26.0,-100.00,WSW,246,6.0,10.0,23,0.00,,,0.01,,2013-06-24 02:01:00,
2013-06-23 20:11:00,65.0,26.0,-100.00,WSW,246,6.0,10.0,23,0.00,,,0.01,,2013-06-24 02:11:00,
2013-06-23 21:53:00,52.0,32.0,-100.00,ESE,110,1.0,2.0,46,0.00,,,0.01,,2013-06-24 03:53:00,
2013-06-23 22:01:00,52.0,32.0,-100.00,ESE,110,1.0,2.0,46,0.00,,,0.01,,2013-06-24 04:01:00,
2013-06-23 22:11:00,52.0,32.0,-100.00,ESE,110,1.0,2.0,46,0.00,,,0.01,,2013-06-24 04:11:00,
2013-06-23 22:53:00,46.0,33.0,-100.00,South,185,2.0,3.0,60,0.00,,,0.01,,2013-06-24 04:53:00,
2013-06-23 23:02:00,46.0,33.0,-100.00,South,185,2.0,3.0,60,0.00,,,0.01,,2013-06-24 05:02:00,
2013-06-23 23:12:00,46.0,33.0,-100.00,South,185,2.0,3.0,60,0.00,,,0.01,,2013-06-24 05:12:00,
2013-06-23 23:55:00,42.0,32.0,-100.00,SE,144,1.0,2.0,68,0.00,,,0.01,,2013-06-24 05:55:00,